Wind_Speed
9 9 9 9 10 9 8 7 6 5 4 4 5 6 6 6 5 7 9 10 6 5 4 4 6 5 4 3 5 13 6 4 4 5 3 2 2 3 3 6 4 3 2 4 6 8 9 29 24 14 20 33 37 42
6 7 7 8 8 9 8 7 7 5 3 2 3 5 6 8 9 10 6 7 11 6 5 9 6 9 9 8 8 15 2 8 7 3 0 2 2 2 2 3 5 2 5 4 4 6 25 20 24 27 33 35 39 43
2 2 4 5 6 6 6 6 5 4 2 0 1 3 5 8 8 10 6 6 4 7 7 4 3 5 8 7 12 8 4 3 3 4 4 2 1 3 3 5 7 7 11 6 10 4 19 24 25 31 31 32 39 41
1 2 2 3 4 3 4 5 4 4 3 3 3 2 4 6 7 9 6 6 4 5 4 2 1 2 7 12 9 9 8 7 7 4 4 2 2 3 3 7 8 11 11 7 11 17 23 19 30 29 29 32 37 39
1 2 2 2 3 3 3 5 4 2 2 4 5 5 5 6 7 8 5 3 5 3 3 6 6 4 3 6 8 5 6 6 6 3 3 2 3 3 7 6 6 8 7 4 3 11 12 21 24 21 26 33 33 32
4 2 2 3 4 6 6 5 4 5 7 7 6 5 5 5 7 5 2 3 3 7 5 3 4 6 5 6 8 7 7 5 5 4 2 3 7 3 3 3 10 14 7 9 4 8 12 15 15 17 22 26 27 21
7 4 3 7 7 6 5 6 6 6 5 5 4 3 4 5 4 4 2 1 3 6 3 4 5 3 7 9 6 7 6 5 4 3 3 4 7 6 3 4 8 9 6 7 6 12 11 9 13 19 19 19 18 16
10 6 7 7 8 7 8 8 7 5 3 3 4 3 3 3 4 4 5 8 8 3 3 2 3 4 7 4 3 5 3 4 4 4 3 5 5 6 5 14 10 4 3 5 9 9 6 10 12 12 13 13 13 16
13 10 9 9 9 11 9 7 7 5 3 3 4 4 4 2 1 3 3 2 2 0 2 2 3 3 12 5 5 4 5 3 6 6 5 7 4 7 11 13 3 1 3 7 11 6 5 6 8 9 10 11 12 13
17 14 11 11 13 11 8 7 6 4 4 6 6 2 1 0 1 1 3 2 2 1 3 4 10 4 12 8 4 7 6 3 4 7 6 4 6 20 13 7 7 3 4 7 7 4 6 7 7 8 9 9 9 10
24 20 14 12 12 11 9 7 5 5 5 3 2 1 1 1 3 1 1 1 2 2 5 5 13 7 12 7 5 9 4 4 3 4 4 4 4 11 10 11 6 2 2 4 4 2 4 4 4 5 7 8 8 9
20 18 16 14 12 11 9 7 6 6 4 4 2 3 2 1 0 1 3 4 4 2 9 6 7 6 2 5 3 3 3 3 4 10 2 3 3 14 13 11 7 3 1 4 5 5 6 6 6 6 7 8 10 11
21 18 18 15 12 11 9 8 10 8 5 3 1 1 1 3 4 5 6 4 3 6 8 8 6 5 3 3 2 4 3 4 2 3 3 4 13 15 13 12 9 6 5 6 7 7 8 7 8 8 10 11 12 14
23 21 19 17 15 12 10 9 10 11 4 3 4 4 5 5 6 6 7 3 9 8 13 13 11 4 3 6 3 4 5 3 3 4 5 5 19 17 15 13 12 10 8 8 9 9 9 10 11 12 13 14 14 15
14 13 16 16 15 14 12 12 12 12 5 5 5 5 9 13 12 7 7 3 4 18 20 12 4 4 4 4 5 4 3 4 5 5 2 17 20 19 17 15 13 13 11 11 10 11 11 12 13 13 13 12 12 12
10 11 13 14 15 14 14 14 16 16 5 6 8 7 10 12 14 12 6 5 9 16 17 8 5 4 5 3 6 7 4 6 3 6 15 14 14 17 18 16 14 14 12 12 11 12 12 12 12 13 13 12 12 14
9 7 10 12 15 17 17 18 17 10 7 7 11 18 18 11 13 12 14 12 11 17 5 7 6 7 5 4 5 5 4 2 4 13 11 11 13 18 17 16 15 15 13 12 12 12 11 12 13 13 12 13 14 15
9 10 11 10 12 16 19 23 8 8 9 14 16 16 18 22 18 12 11 15 17 14 19 5 3 6 5 5 5 5 9 5 5 9 9 11 13 16 15 15 16 15 14 15 14 13 13 13 11 10 11 13 13 13
9 12 14 14 13 17 9 8 14 5 14 17 22 19 16 17 20 23 21 16 15 17 9 6 6 4 6 4 7 3 6 11 11 8 9 11 13 17 15 13 16 18 17 18 16 15 14 14 13 13 13 13 12 13
14 14 10 7 14 11 6 8 9 9 13 17 26 24 23 23 22 23 23 22 18 8 6 5 6 6 5 8 10 6 7 11 11 12 10 11 14 17 16 16 19 19 19 16 15 15 15 15 15 15 15 14 15 15
8 9 14 15 11 9 6 4 9 11 21 28 23 20 21 21 26 26 28 24 21 9 6 8 16 18 15 6 3 4 6 9 10 9 11 14 18 18 19 16 18 21 19 19 20 20 18 18 17 16 17 18 17 16
7 6 11 14 8 6 7 9 7 8 6 11 22 30 23 20 21 25 23 24 27 29 25 26 20 12 16 18 19 14 9 7 8 11 10 10 14 20 22 21 23 24 22 23 22 21 21 18 18 20 21 21 20 19
9 10 10 8 8 7 6 13 19 20 5 5 13 19 20 22 28 21 7 21 34 32 30 30 27 26 26 21 17 14 16 13 13 14 14 14 13 13 20 22 24 25 25 23 21 21 21 20 22 21 19 20 20 19
12 5 6 7 13 5 5 8 19 22 22 20 9 5 10 17 19 20 14 27 26 28 31 37 33 27 28 27 26 26 29 24 21 19 21 19 18 18 21 23 24 25 24 23 23 23 23 25 22 21 20 20 20 19
7 9 8 8 9 7 5 8 16 15 17 16 19 14 5 0 1 1 8 23 28 29 24 30 34 34 32 30 30 33 32 28 29 28 25 26 22 21 21 23 24 25 24 26 27 28 27 25 24 23 22 22 21 20
9 9 9 11 8 8 6 6 6 12 12 16 14 22 19 3 4 5 5 5 8 23 29 31 27 28 32 33 31 29 30 31 33 28 26 30 30 30 29 28 27 28 29 29 30 30 27 25 25 25 23 23 22 21
7 6 13 19 16 17 15 16 20 8 3 7 6 13 10 7 6 8 5 4 6 10 2 7 12 21 32 34 33 33 31 31 33 29 27 29 32 31 32 30 28 28 29 32 30 29 27 26 25 25 25 24 24 23
17 18 14 12 19 24 16 13 11 8 7 15 12 3 7 6 9 23 13 7 9 13 16 11 13 13 20 28 31 33 30 30 29 29 24 23 29 29 30 30 27 25 25 30 30 27 26 25 25 25 25 24 24 23
11 17 28 23 21 15 19 17 16 21 18 8 7 10 15 21 22 17 17 19 21 22 23 24 26 22 20 22 25 26 28 31 34 32 32 32 31 31 31 31 29 26 27 26 25 23 23 23 23 23 21 21 21 21
24 24 8 16 16 15 28 24 22 25 23 21 15 16 20 13 13 15 15 15 16 17 19 23 20 26 26 14 20 23 27 31 35 36 36 37 37 32 32 31 30 29 27 25 25 25 23 23 23 24 24 25 26 26
29 30 27 22 11 17 14 13 10 11 10 8 10 12 15 15 20 17 12 14 16 17 18 22 16 22 25 18 18 24 28 30 32 32 32 32 29 28 30 31 28 26 25 25 25 26 28 30 30 30 29 28 28 26
24 21 21 19 25 29 22 17 14 10 11 13 15 14 14 14 19 25 15 11 14 16 19 20 13 20 21 16 12 19 28 27 29 32 31 29 26 21 22 24 26 26 24 23 24 25 28 31 31 30 29 27 25 22
12 18 23 22 19 25 32 26 23 19 16 16 18 19 18 18 19 22 23 22 21 20 18 17 13 16 18 13 10 11 14 15 14 18 27 25 22 19 19 21 25 27 23 21 22 22 23 27 27 27 26 25 23 20
Wind_Direction
105 107 112 116 121 128 137 143 141 135 125 102 82 74 82 84 94 119 135 153 122 112 109 60 101 165 147 229 158 128 142 220 195 214 206 248 268 192 249 271 266 249 273 278 279 283 280 353 351 354 321 331 333 328
109 121 130 139 144 142 149 146 145 142 127 93 68 75 89 95 94 84 89 132 131 126 141 149 158 139 115 73 86 159 124 155 176 236 235 342 144 309 322 259 125 277 227 264 276 274 315 334 349 342 337 333 330 324
84 110 149 160 166 178 185 181 197 212 208 199 86 74 99 102 110 108 79 87 118 121 105 95 111 221 181 149 129 171 188 109 165 29 84 49 212 316 246 246 298 295 308 303 307 288 307 337 337 336 334 334 325 323
69 100 136 162 166 172 191 195 205 234 235 196 153 136 117 111 114 102 72 92 117 111 110 135 218 103 205 197 137 103 119 118 109 104 78 125 227 256 259 302 306 273 306 268 277 288 336 325 328 334 331 332 334 333
155 123 145 150 156 151 155 167 165 176 146 149 152 143 130 122 112 93 97 60 125 88 130 129 123 107 135 168 163 150 126 157 140 84 74 203 225 255 246 266 255 223 232 272 308 345 319 311 325 333 336 336 337 341
196 194 197 165 149 137 133 137 139 143 137 139 144 138 133 125 119 90 69 40 165 112 125 143 123 159 136 146 165 166 168 157 122 123 182 250 245 254 261 251 253 259 283 50 27 329 319 315 327 336 339 346 350 352
207 205 173 151 142 139 134 133 129 126 121 116 117 120 127 128 86 83 38 6 118 96 91 112 140 128 159 155 121 129 137 129 113 146 230 251 245 212 247 244 255 290 329 33 49 348 333 346 325 338 351 356 354 17
207 201 174 162 154 150 143 137 135 132 123 115 107 94 99 121 100 85 84 92 88 81 97 126 126 148 173 127 114 172 129 168 205 214 213 223 233 217 254 242 264 165 65 73 354 353 324 306 323 343 358 0 19 30
204 196 184 178 167 155 154 158 144 133 130 149 135 111 98 108 139 115 130 221 275 282 114 182 184 168 172 140 121 137 151 178 198 212 220 208 210 224 239 239 161 254 347 324 333 7 355 353 352 1 13 25 42 51
195 193 181 173 168 170 172 167 149 137 121 148 123 97 111 67 200 163 38 347 348 196 225 242 214 144 171 158 136 157 188 232 201 214 191 216 246 246 238 161 187 208 300 321 345 14 14 11 15 27 31 46 63 75
197 194 187 182 179 185 190 188 168 141 108 106 126 125 241 130 148 142 104 234 175 248 214 224 234 156 184 170 156 201 179 205 247 158 213 218 247 235 168 164 169 181 325 349 27 36 85 47 49 64 65 71 87 105
179 181 191 193 195 197 198 191 167 123 195 192 162 128 224 190 157 224 213 180 218 258 165 179 203 171 182 179 128 193 204 179 255 155 235 250 226 138 136 140 156 155 107 63 81 87 99 91 99 106 100 98 100 105
193 186 193 198 206 208 206 195 193 175 167 154 149 144 207 187 235 218 193 191 208 193 166 162 146 140 145 178 150 173 215 229 185 218 234 252 150 150 156 156 154 147 114 100 96 87 94 108 110 107 108 108 115 119
191 182 197 205 205 215 218 206 198 189 152 200 179 218 220 203 235 210 237 190 204 143 150 163 152 155 153 182 196 216 224 205 227 232 226 203 158 154 171 178 161 150 137 122 109 110 109 110 114 116 114 119 125 128
208 191 196 207 216 223 218 206 194 179 192 216 203 227 223 225 231 244 237 204 154 148 146 164 132 158 167 188 207 222 210 238 226 235 193 116 145 164 174 168 164 159 148 134 127 128 128 128 126 126 131 136 135 135
204 211 218 215 215 214 210 201 193 193 215 224 224 235 256 237 232 239 256 239 173 156 155 196 175 193 202 213 193 207 216 218 225 176 130 141 151 168 166 171 168 162 155 147 146 143 141 141 140 139 141 142 141 140
206 208 227 219 217 213 208 203 194 203 228 214 224 227 246 267 237 240 225 229 209 170 184 196 210 208 180 202 209 204 216 330 109 124 142 158 177 171 170 171 167 162 160 157 156 158 149 150 154 149 147 146 152 156
212 227 236 217 211 215 220 219 219 217 225 233 238 237 229 238 254 258 260 240 218 205 209 238 266 219 197 200 223 219 206 184 132 133 137 153 166 163 167 169 167 161 164 172 171 168 167 163 157 168 168 165 159 157
217 219 220 217 223 216 206 225 209 246 231 239 235 241 248 247 244 245 250 259 248 228 220 218 230 219 214 195 258 265 196 171 146 135 149 166 172 168 169 177 164 163 179 186 180 174 176 176 183 180 176 165 167 163
221 235 260 248 235 219 236 205 198 222 248 241 232 238 240 243 248 250 250 247 242 248 232 205 218 237 234 243 257 256 198 169 162 162 168 178 181 176 174 187 176 176 191 183 176 180 179 183 189 186 182 176 181 180
239 249 238 247 246 242 271 239 211 242 235 239 246 239 241 243 236 237 239 242 235 222 235 251 239 238 244 253 207 195 170 177 197 188 206 187 193 187 181 194 179 193 193 182 184 189 190 194 189 189 186 193 194 192
235 228 214 231 227 230 233 237 241 239 294 272 230 229 245 242 245 243 241 240 239 235 234 232 241 257 249 243 234 247 240 217 210 201 213 219 197 194 191 199 189 199 197 199 202 201 194 196 193 198 202 200 199 200
266 251 255 226 195 220 248 235 243 244 246 280 261 235 231 239 238 242 247 238 243 240 236 238 238 242 243 246 244 247 244 247 232 217 218 229 225 209 202 210 205 207 200 209 206 208 196 197 206 210 204 199 199 202
240 251 248 224 194 218 227 242 235 232 243 253 257 261 236 236 233 229 241 239 251 235 233 232 232 236 239 240 243 246 247 248 239 229 228 227 222 220 212 216 214 219 217 211 201 209 202 206 212 210 206 201 204 205
223 219 211 232 209 200 235 251 258 252 236 238 240 247 264 122 305 280 259 253 242 238 239 231 229 229 229 234 238 243 241 233 229 228 226 230 230 221 215 213 220 221 216 206 203 210 213 212 212 211 210 209 210 208
208 228 211 205 212 220 220 239 238 230 240 243 249 245 235 290 262 233 245 303 273 244 235 236 232 230 231 232 234 234 230 226 230 223 227 231 231 226 221 209 211 215 220 218 215 216 218 215 213 213 213 214 215 214
239 238 207 225 230 227 230 246 246 244 258 224 236 220 231 231 246 244 239 21 35 3 205 252 252 248 241 238 238 239 236 230 227 245 243 229 234 234 233 231 232 239 226 223 224 223 223 220 218 217 217 217 219 219
219 231 243 238 236 232 234 238 259 266 260 256 234 260 229 219 234 250 266 276 321 327 331 302 337 320 254 239 239 234 231 229 231 231 226 225 231 232 234 233 234 236 234 232 231 228 225 224 224 223 222 222 223 221
239 234 225 233 237 251 248 246 239 245 255 288 304 284 253 252 271 287 286 289 293 296 298 299 302 317 320 242 230 226 225 220 214 202 206 210 214 219 222 226 229 228 229 226 224 227 229 227 224 224 226 227 228 227
242 243 256 234 232 234 241 247 249 251 261 260 255 279 302 288 287 289 294 299 301 296 292 289 295 296 309 277 231 224 220 220 221 223 220 222 229 228 222 223 222 223 225 219 214 214 213 211 210 211 214 217 220 220
229 234 252 254 256 255 255 241 255 261 280 297 275 268 272 297 303 302 292 292 290 290 289 287 282 287 296 293 233 219 216 217 222 229 235 240 238 234 227 226 226 224 220 216 216 216 212 207 208 210 213 216 221 224
241 242 239 242 249 253 257 254 266 265 262 264 274 276 276 276 276 288 287 295 304 310 313 314 288 281 291 293 265 228 231 233 230 228 229 229 227 229 227 224 223 216 212 216 218 219 215 214 214 215 216 218 222 226
259 245 242 250 257 254 253 250 252 259 262 259 257 258 262 264 272 274 279 283 282 290 303 319 313 275 283 288 274 238 230 225 222 227 227 226 222 222 220 218 210 205 205 211 214 214 213 214 216 218 220 221 225 227
Height
1496 1496 1498 1498 1500 1502 1505 1508 1509 1511 1513 1512 1512 1512 1515 1515 1514 1513 1516 1519 1522 1524 1528 1530 1530 1531 1532 1534 1536 1542 1551 1553 1554 1550 1549 1552 1547 1540 1543 1538 1539 1540 1542 1546 1544 1546 1545 1531 1530 1545 1541 1532 1528 1518
1499 1500 1502 1504 1506 1506 1510 1511 1511 1513 1513 1514 1513 1514 1517 1514 1513 1515 1517 1521 1522 1524 1528 1528 1529 1530 1532 1536 1535 1542 1546 1546 1548 1546 1544 1546 1549 1550 1545 1546 1534 1542 1538 1541 1542 1536 1534 1537 1538 1541 1538 1533 1525 1521
1500 1501 1502 1503 1505 1508 1509 1510 1511 1513 1514 1515 1515 1516 1517 1515 1515 1517 1521 1523 1522 1525 1528 1531 1532 1533 1533 1536 1536 1542 1546 1545 1548 1548 1548 1553 1558 1551 1549 1542 1537 1535 1536 1537 1539 1535 1536 1538 1539 1540 1537 1532 1526 1518
1501 1501 1502 1504 1505 1506 1508 1509 1511 1514 1514 1516 1517 1519 1519 1519 1520 1519 1524 1524 1526 1526 1528 1533 1532 1532 1533 1537 1539 1541 1542 1548 1550 1550 1553 1556 1556 1554 1551 1544 1544 1542 1542 1537 1534 1533 1536 1538 1540 1537 1533 1528 1522 1514
1502 1503 1505 1506 1506 1507 1507 1509 1511 1514 1515 1517 1520 1521 1521 1522 1521 1522 1525 1525 1523 1527 1529 1532 1533 1534 1537 1538 1539 1541 1544 1548 1551 1554 1555 1556 1554 1556 1553 1550 1542 1535 1532 1532 1531 1538 1542 1539 1539 1536 1531 1525 1519 1512
1503 1505 1506 1506 1507 1509 1510 1512 1514 1517 1520 1521 1523 1522 1522 1523 1522 1523 1524 1526 1525 1525 1528 1532 1534 1537 1538 1538 1540 1543 1544 1548 1550 1552 1555 1555 1553 1555 1551 1542 1533 1530 1528 1530 1535 1536 1538 1537 1536 1534 1530 1525 1518 1512
1503 1505 1506 1507 1508 1510 1510 1512 1514 1516 1519 1519 1520 1521 1522 1523 1523 1525 1527 1526 1525 1527 1527 1530 1532 1537 1537 1538 1539 1540 1543 1549 1551 1552 1554 1553 1554 1555 1549 1537 1528 1527 1528 1529 1531 1532 1533 1533 1532 1529 1526 1523 1519 1514
1503 1505 1506 1508 1509 1512 1513 1515 1516 1518 1521 1521 1521 1522 1524 1525 1526 1526 1527 1526 1526 1527 1529 1530 1530 1534 1536 1537 1541 1545 1546 1548 1550 1550 1551 1549 1550 1550 1541 1528 1524 1523 1524 1527 1528 1531 1531 1530 1529 1528 1525 1523 1519 1515
1502 1504 1507 1509 1511 1513 1515 1517 1517 1519 1521 1523 1523 1524 1526 1528 1528 1527 1527 1527 1527 1529 1528 1528 1525 1529 1535 1538 1541 1543 1545 1549 1549 1547 1545 1544 1541 1537 1526 1523 1520 1521 1523 1525 1526 1528 1527 1528 1528 1526 1525 1522 1519 1518
1500 1504 1507 1509 1511 1514 1516 1519 1519 1521 1523 1524 1525 1526 1527 1527 1527 1527 1525 1526 1525 1525 1527 1526 1523 1526 1531 1535 1540 1545 1545 1541 1538 1537 1536 1537 1526 1521 1519 1516 1518 1519 1521 1523 1523 1524 1525 1526 1525 1524 1524 1522 1521 1520
1499 1503 1507 1509 1511 1514 1517 1519 1521 1522 1523 1525 1525 1526 1527 1526 1528 1526 1526 1527 1526 1526 1523 1522 1523 1524 1527 1530 1535 1537 1535 1535 1530 1527 1530 1523 1514 1510 1511 1513 1517 1519 1520 1520 1520 1521 1523 1523 1524 1524 1524 1523 1523 1521
1498 1502 1506 1508 1511 1514 1517 1519 1521 1522 1524 1525 1526 1527 1528 1527 1527 1526 1523 1522 1523 1516 1518 1520 1521 1523 1525 1526 1528 1532 1532 1531 1527 1525 1526 1516 1507 1509 1512 1515 1516 1518 1518 1518 1519 1520 1521 1521 1522 1523 1524 1524 1524 1523
1497 1501 1504 1507 1511 1513 1516 1518 1520 1522 1523 1526 1526 1527 1527 1526 1525 1521 1516 1513 1514 1512 1515 1518 1521 1523 1526 1526 1528 1529 1529 1526 1522 1521 1514 1506 1503 1509 1512 1514 1515 1516 1516 1517 1519 1519 1520 1521 1523 1524 1524 1525 1525 1526
1496 1499 1503 1506 1509 1512 1515 1517 1520 1522 1525 1526 1526 1526 1522 1516 1512 1505 1503 1501 1506 1508 1513 1517 1520 1522 1525 1525 1526 1525 1520 1517 1517 1513 1502 1497 1502 1507 1510 1511 1513 1514 1516 1517 1518 1520 1521 1523 1524 1525 1526 1527 1528 1529
1494 1497 1500 1504 1508 1511 1513 1516 1519 1521 1523 1523 1522 1516 1507 1504 1502 1501 1502 1503 1506 1507 1512 1519 1520 1521 1522 1522 1520 1517 1516 1513 1505 1496 1493 1496 1500 1503 1506 1509 1511 1514 1515 1517 1519 1521 1523 1525 1526 1527 1528 1530 1531 1532
1493 1496 1499 1502 1505 1508 1511 1514 1516 1518 1519 1517 1513 1506 1501 1499 1499 1501 1502 1503 1506 1508 1512 1516 1515 1514 1512 1510 1510 1509 1504 1497 1489 1491 1496 1498 1501 1502 1505 1508 1510 1513 1515 1517 1520 1522 1525 1526 1527 1529 1530 1531 1533 1534
1493 1496 1497 1499 1503 1506 1508 1511 1512 1512 1511 1506 1499 1499 1500 1498 1499 1499 1500 1502 1504 1506 1507 1509 1505 1499 1499 1501 1501 1496 1493 1488 1491 1493 1495 1496 1498 1501 1504 1506 1509 1512 1515 1519 1522 1524 1525 1528 1529 1530 1531 1532 1534 1535
1492 1494 1495 1497 1500 1502 1504 1505 1504 1502 1499 1495 1494 1494 1495 1497 1498 1497 1498 1499 1501 1501 1502 1500 1494 1492 1490 1489 1488 1487 1487 1489 1491 1493 1494 1497 1498 1500 1503 1504 1508 1512 1517 1520 1522 1523 1526 1528 1530 1532 1533 1533 1534 1536
1490 1490 1492 1495 1497 1500 1499 1499 1498 1493 1491 1490 1490 1492 1491 1492 1493 1494 1495 1495 1495 1496 1497 1495 1491 1487 1482 1482 1484 1486 1486 1487 1490 1494 1496 1498 1498 1500 1502 1504 1508 1513 1516 1518 1519 1522 1525 1528 1530 1531 1532 1533 1535 1536
1486 1488 1489 1491 1493 1495 1492 1490 1490 1489 1485 1483 1484 1485 1486 1486 1488 1488 1489 1490 1491 1490 1488 1487 1483 1480 1481 1482 1483 1485 1486 1487 1488 1491 1495 1497 1498 1500 1501 1503 1507 1511 1513 1515 1519 1522 1524 1527 1528 1529 1531 1533 1534 1535
1484 1485 1486 1487 1489 1489 1486 1480 1480 1480 1477 1478 1477 1478 1477 1478 1479 1480 1480 1483 1485 1484 1483 1479 1479 1480 1481 1481 1483 1485 1485 1485 1487 1488 1489 1492 1494 1497 1500 1502 1506 1508 1509 1512 1515 1518 1521 1522 1525 1527 1529 1531 1532 1533
1481 1482 1483 1483 1484 1483 1481 1479 1477 1475 1475 1471 1469 1471 1470 1470 1470 1470 1475 1476 1473 1471 1473 1474 1475 1477 1477 1478 1482 1482 1484 1484 1486 1487 1487 1488 1489 1492 1494 1497 1501 1503 1506 1508 1510 1513 1516 1519 1521 1523 1524 1526 1529 1530
1480 1480 1479 1478 1478 1478 1475 1473 1472 1472 1472 1467 1463 1462 1461 1460 1460 1468 1466 1462 1458 1463 1465 1467 1468 1471 1472 1474 1476 1478 1480 1480 1482 1483 1484 1485 1486 1488 1490 1492 1496 1498 1501 1503 1506 1508 1512 1515 1517 1518 1521 1523 1525 1526
1477 1478 1475 1470 1469 1469 1468 1465 1464 1466 1466 1464 1463 1457 1451 1451 1455 1455 1452 1451 1451 1453 1455 1457 1461 1462 1465 1466 1469 1470 1473 1475 1477 1479 1479 1480 1481 1483 1485 1487 1490 1492 1496 1499 1502 1504 1507 1509 1512 1514 1517 1519 1521 1523
1475 1471 1469 1463 1462 1463 1462 1460 1460 1457 1456 1455 1457 1456 1454 1452 1450 1450 1444 1438 1442 1443 1445 1447 1449 1451 1453 1455 1458 1459 1463 1466 1467 1470 1473 1474 1477 1479 1481 1482 1484 1487 1490 1493 1495 1497 1500 1504 1507 1510 1513 1515 1517 1519
1463 1458 1455 1452 1454 1454 1453 1453 1451 1449 1450 1449 1446 1446 1451 1451 1447 1441 1435 1433 1431 1434 1436 1439 1442 1443 1445 1446 1448 1450 1453 1456 1458 1462 1466 1466 1468 1470 1472 1475 1477 1480 1482 1485 1488 1490 1494 1498 1502 1505 1508 1511 1513 1516
1452 1445 1444 1446 1446 1447 1447 1445 1444 1447 1443 1441 1436 1440 1445 1445 1439 1433 1431 1431 1431 1430 1430 1432 1433 1434 1436 1438 1439 1443 1446 1449 1450 1451 1456 1459 1461 1464 1465 1467 1468 1471 1475 1477 1480 1484 1488 1492 1496 1499 1503 1506 1509 1511
1443 1443 1440 1443 1441 1441 1441 1442 1442 1440 1437 1437 1438 1437 1434 1427 1426 1432 1431 1431 1430 1430 1430 1429 1428 1427 1426 1427 1430 1434 1436 1440 1443 1445 1450 1453 1455 1458 1459 1461 1464 1466 1469 1471 1475 1479 1483 1487 1490 1494 1497 1500 1504 1506
1434 1433 1435 1435 1437 1437 1435 1436 1436 1436 1435 1437 1438 1433 1428 1430 1428 1428 1428 1428 1427 1426 1425 1423 1423 1422 1419 1419 1420 1423 1426 1430 1433 1435 1439 1442 1446 1449 1451 1454 1457 1459 1462 1465 1470 1474 1478 1481 1485 1489 1493 1496 1499 1502
1429 1430 1428 1428 1429 1429 1431 1431 1429 1430 1430 1430 1431 1430 1428 1425 1425 1423 1421 1422 1422 1421 1420 1418 1416 1417 1415 1413 1413 1415 1418 1421 1424 1427 1430 1432 1435 1440 1444 1446 1449 1452 1455 1460 1464 1468 1472 1476 1480 1483 1486 1489 1491 1494
1424 1425 1424 1423 1423 1424 1424 1425 1426 1428 1428 1426 1427 1426 1426 1425 1421 1420 1420 1419 1418 1415 1413 1412 1409 1411 1411 1409 1408 1410 1413 1416 1419 1422 1425 1428 1431 1434 1438 1441 1444 1447 1451 1455 1458 1461 1464 1468 1471 1475 1478 1481 1484 1488
1417 1418 1419 1419 1418 1420 1422 1422 1422 1423 1424 1424 1424 1423 1422 1422 1419 1417 1415 1414 1413 1411 1409 1407 1405 1407 1407 1404 1403 1405 1407 1410 1413 1415 1418 1422 1426 1430 1433 1436 1439 1443 1446 1450 1453 1456 1458 1462 1465 1469 1472 1476 1480 1483
1411 1412 1413 1415 1415 1414 1413 1417 1416 1417 1417 1417 1417 1417 1416 1416 1413 1412 1410 1409 1408 1407 1405 1403 1401 1402 1402 1400 1399 1400 1402 1404 1407 1409 1413 1418 1422 1426 1428 1431 1434 1438 1442 1446 1449 1451 1454 1457 1461 1464 1468 1472 1475 1479